Location: Lahas
(43.5538°N, 0.8906°E)
Time: 21:15:49
(UTC+00:00)

ISS - Pass Details

Date: 15 May 2026
Orbit: 413 x 422 km, 51.6° (Epoch: 8 June)

Event Time Altitude Azimuth Distance (km) Brightness Sun altitude
Rises 21:21:48 0° 297° (WNW) 2,350 1.2 -18.5°
Reaches altitude 10° 21:24:16 10° 314° (NW) 1,488 0.3 -18.7°
Maximum altitude 21:26:51 20° 5° (N) 1,014 -1.3 -19.0°
Drops below altitude 10° 21:29:26 10° 56° (NE) 1,490 -1.0 -19.3°
Enters shadow 21:29:40 - 59° (ENE) 1,566 -0.9 -19.3°
